Regional Weather Roundup
Issued by NWS

Home | Current Version | Previous Version | Graphics & Text | Print | Product List | Glossary On
Versions: 1 2 3 4 5 6 7 8 9 10 11 12 13 14 15 16 17 18 19 20 21 22 23 24 25 26 27 28 29 30 31 32 33 34 35 36 37 38 39 40 41 42 43 44 45 46 47 48 49 50
000
ASUS43 KOAX 200010
RWRNE

WEATHER ROUNDUP FOR NEBRASKA
NATIONAL WEATHER SERVICE OMAHA NE
700 PM CDT FRI SEP 19 2014

NOTES: SATELLITE DATA IS BEING USED TO AUGMENT CLOUD COVER ABOVE
       12000 FEET.
       "FAIR" INDICATES FEW OR NO CLOUDS BELOW 12,000 FEET WITH NO
       SIGNIFICANT WEATHER AND/OR OBSTRUCTIONS TO VISIBILITY.

  * THESE STATIONS DO NOT REPORT WEATHER SUCH AS RAIN...SNOW OR FOG.

NEZ001>004-019>022-054>056-200100-
NEBRASKA PANHANDLE

CITY           SKY/WX    TMP DP  RH WIND       PRES   REMARKS
SCOTTSBLUFF    CLEAR     88  48  25 NW9       29.87R
6HR MIN TEMP:  82; 6HR MAX TEMP:  91;

ALLIANCE       CLEAR     84  49  29 N12       29.87R
6HR MIN TEMP:  82; 6HR MAX TEMP:  89;

CHADRON        CLEAR     85  50  29 N8        29.83S
6HR MIN TEMP:  80; 6HR MAX TEMP:  88;

KIMBALL        DRIZZLE   75  48  38 CALM      29.95R
SIDNEY         MOCLDY    80  50  34 SE6       29.92R
6HR MIN TEMP:  80; 6HR MAX TEMP:  92;

$$

NEZ057>060-069>072-079>082-200100-
SOUTHWEST NEBRASKA

CITY           SKY/WX    TMP DP  RH WIND       PRES   REMARKS
NORTH PLATTE   CLEAR     85  59  41 S10       29.78F
6HR MIN TEMP:  84; 6HR MAX TEMP:  93;

IMPERIAL       CLEAR     88  52  29 S7        29.83S
6HR MIN TEMP:  88; 6HR MAX TEMP:  94;

LEXINGTON      CLEAR     86  59  39 S9        29.81R
MCCOOK         CLEAR     88  60  38 S12       29.82S
6HR MIN TEMP:  88; 6HR MAX TEMP:  93;

OGALLALA       CLEAR     87  55  33 CALM      29.82S
$$

NEZ005>010-023>029-035>040-094-200100-
NORTH CENTRAL NEBRASKA

CITY           SKY/WX    TMP DP  RH WIND       PRES   REMARKS
VALENTINE      CLEAR     85  54  34 N9        29.80R
6HR MIN TEMP:  84; 6HR MAX TEMP:  90;

AINSWORTH      CLEAR     79  61  53 NE5       29.80S
BROKEN BOW     CLEAR     89  57  33 S13       29.77F
6HR MIN TEMP:  87; 6HR MAX TEMP:  94;

O`NEILL        CLEAR     83  68  60 N5        29.76S
ORD            CLEAR     85  61  44 S13       29.74F
6HR MIN TEMP:  83; 6HR MAX TEMP:  89;

THEDFORD       CLEAR     84  59  42 N8        29.82R
$$

NEZ041-046>049-061>064-073>077-083>087-200100-
SOUTH CENTRAL NEBRASKA

CITY           SKY/WX    TMP DP  RH WIND       PRES   REMARKS
GRAND ISLAND   CLEAR     85  64  49 S14G25    29.80S
6HR MIN TEMP:  85; 6HR MAX TEMP:  90;

AURORA         CLEAR     84  60  45 S12G20    29.80F
HASTINGS       CLEAR     85  59  41 S10G20    29.81S
6HR MIN TEMP:  83; 6HR MAX TEMP:  88;

HEBRON         CLEAR     84  62  46 S8        29.82S
HOLDREGE       CLEAR     84  58  41 S12       29.82S
KEARNEY *      CLEAR     82  63  51 S14       29.82R
YORK           CLEAR     82  66  57 S9        29.81S
$$

NEZ011>018-030>034-042>045-200100-
NORTHEAST NEBRASKA

CITY           SKY/WX    TMP DP  RH WIND       PRES   REMARKS
NORFOLK        CLEAR     84  64  50 S9        29.75S
6HR MIN TEMP:  84; 6HR MAX TEMP:  90;

ALBION         CLEAR     82  64  53 S8        29.77S
BLAIR          CLEAR     85  65  51 S12G18    29.79S
COLUMBUS *     CLEAR     84  63  48 S10G16    29.79S
FREMONT        CLEAR     85  64  49 S9        29.79R
TEKAMAH        CLEAR     85  65  51 S10       29.76R
6HR MIN TEMP:  83; 6HR MAX TEMP:  91;

WAYNE          CLEAR     82  66  58 S9        29.75S
$$

NEZ050>053-065>068-078-088>093-200100-
SOUTHEAST NEBRASKA

CITY           SKY/WX    TMP DP  RH WIND       PRES   REMARKS
LINCOLN        CLEAR     85  65  51 S14       29.80S
6HR MIN TEMP:  85; 6HR MAX TEMP:  90;

OMAHA EPPLEY   PTCLDY    83  69  62 S18       29.79R
6HR MIN TEMP:  77; 6HR MAX TEMP:  85;

BEATRICE       CLEAR     85  65  52 S9G16     29.83S
FALLS CITY     CLEAR     78  69  73 S17       29.85F
6HR MIN TEMP:  72; 6HR MAX TEMP:  82;

NEBRASKA CITY    N/A     79  64  60 S15       29.84S
PLATTSMOUTH    CLEAR     80  68  65 S8G18     29.82S
$$

NEZ044-045-051>053-067-200100-
OMAHA AREA

CITY           SKY/WX    TMP DP  RH WIND       PRES   REMARKS
OMAHA EPPLEY   PTCLDY    83  69  62 S18       29.79R
6HR MIN TEMP:  77; 6HR MAX TEMP:  85;

BLAIR          CLEAR     85  65  51 S12G18    29.79S
FREMONT        CLEAR     85  64  49 S9        29.79R
MILLARD        CLEAR     85  69  58 S5        29.79S
OFFUTT AFB     CLEAR     81  73  78 SE13      29.80R
PLATTSMOUTH    CLEAR     80  68  65 S8G18     29.82S
WAHOO          FAIR      84  64  50 S9        29.79S
$$


USA.gov is the U.S. government's official web portal to all federal, state and local government web resources and services.